| time (UTC) | temp C | wind direction | speed KPH | gust KPH | rain 1hr cm | rain 24hr cm | rain mn cm | humidity % | barometer mb |
| 20260509234004 | 18 | 225 | 4.8 | 12.9 | 0.00 | 0.20 | 0.00 | 82 | 992.7 |
| 20260509233004 | 19 | 256 | 6.4 | 12.9 | 0.00 | 0.20 | 0.00 | 84 | 993.1 |
| 20260509232004 | 18 | 315 | 6.4 | 16.1 | 0.00 | 0.20 | 0.00 | 84 | 993.0 |
| 20260509231003 | 18 | 315 | 8.0 | 14.5 | 0.00 | 0.23 | 0.00 | 84 | 993.1 |
| 20260509230004 | 18 | 161 | 4.8 | 9.7 | 0.00 | 0.23 | 0.00 | 87 | 993.1 |
| 20260509225004 | 17 | 225 | 4.8 | 9.7 | 0.00 | 0.23 | 0.00 | 85 | 993.4 |
| 20260509224004 | 18 | 270 | 4.8 | 12.9 | 0.00 | 0.23 | 0.00 | 87 | 993.4 |
| 20260509223004 | 17 | 251 | 4.8 | 9.7 | 0.00 | 0.23 | 0.00 | 88 | 993.5 |
| 20260509222004 | 17 | 259 | 4.8 | 9.7 | 0.00 | 0.23 | 0.00 | 88 | 993.4 |
| 20260509221004 | 17 | 238 | 4.8 | 9.7 | 0.00 | 0.23 | 0.00 | 87 | 993.4 |
| 20260509220004 | 17 | 261 | 4.8 | 9.7 | 0.00 | 0.23 | 0.00 | 89 | 993.4 |
| 20260509215004 | 16 | 225 | 3.2 | 16.1 | 0.00 | 0.23 | 0.00 | 90 | 993.4 |
| 20260509214004 | 17 | 249 | 4.8 | 9.7 | 0.00 | 0.23 | 0.00 | 91 | 993.4 |
| 20260509213004 | 17 | 225 | 1.6 | 4.8 | 0.00 | 0.23 | 0.00 | 93 | 993.4 |
| 20260509212006 | 16 | 256 | 1.6 | 9.7 | 0.00 | 0.23 | 0.00 | 96 | 993.5 |
| 20260509211004 | 15 | 275 | 3.2 | 9.7 | 0.00 | 0.23 | 0.00 | 97 | 993.6 |
| 20260509210004 | 15 | 210 | 1.6 | 4.8 | 0.00 | 0.23 | 0.00 | 98 | 993.5 |
| 20260509205005 | 13 | 270 | 0.0 | 4.8 | 0.00 | 0.23 | 0.00 | 99 | 993.5 |
| 20260509204004 | 13 | 222 | 0.0 | 3.2 | 0.00 | 0.23 | 0.00 | 99 | 993.4 |
| 20260509203004 | 13 | 225 | 1.6 | 3.2 | 0.00 | 0.25 | 0.00 | 99 | 993.4 |
| 20260509202004 | 13 | 225 | 1.6 | 3.2 | 0.00 | 0.25 | 0.00 | 99 | 993.1 |
| 20260509201004 | 12 | 180 | 0.0 | 3.2 | 0.00 | 0.25 | 0.00 | 97 | 992.8 |
| 20260509200004 | 12 | 180 | 0.0 | 3.2 | 0.00 | 0.25 | 0.00 | 97 | 992.7 |
| 20260509195004 | 11 | 140 | 1.6 | 3.2 | 0.00 | 0.41 | 0.00 | 98 | 992.5 |
| 20260509194003 | 12 | 108 | 0.0 | 1.6 | 0.00 | 0.41 | 0.00 | 97 | 992.4 |
| 20260509193004 | 11 | 135 | 0.0 | 1.6 | 0.00 | 0.41 | 0.00 | 98 | 992.5 |
| 20260509192004 | 11 | 117 | 0.0 | 4.8 | 0.00 | 0.41 | 0.00 | 98 | 992.3 |
| 20260509191004 | 12 | 66 | 3.2 | 4.8 | 0.00 | 0.41 | 0.00 | 97 | 992.2 |
| 20260509190004 | 12 | 218 | 0.0 | 4.8 | 0.00 | 0.41 | 0.00 | 98 | 992.3 |
| 20260509185003 | 13 | 297 | 3.2 | 4.8 | 0.00 | 0.41 | 0.00 | 99 | 992.3 |
| 20260509184003 | 13 | 225 | 1.6 | 4.8 | 0.00 | 0.41 | 0.00 | 99 | 992.3 |
| 20260509183004 | 13 | 248 | 1.6 | 4.8 | 0.00 | 0.41 | 0.00 | 99 | 992.2 |
| 20260509182004 | 13 | 270 | 3.2 | 4.8 | 0.00 | 0.41 | 0.00 | 99 | 992.2 |
| 20260509181004 | 12 | 258 | 1.6 | 4.8 | 0.00 | 0.41 | 0.00 | 97 | 992.1 |
| 20260509180004 | 11 | 225 | 1.6 | 4.8 | 0.00 | 0.41 | 0.00 | 98 | 992.2 |
| 20260509175004 | 12 | 225 | 1.6 | 3.2 | 0.00 | 0.41 | 0.00 | 97 | 992.2 |
| 20260509174004 | 12 | 203 | 1.6 | 4.8 | 0.00 | 0.41 | 0.00 | 97 | 992.2 |
| 20260509173004 | 12 | 148 | 0.0 | 1.6 | 0.00 | 0.41 | 0.00 | 97 | 992.2 |
| 20260509172003 | 12 | 203 | 1.6 | 3.2 | 0.00 | 0.41 | 0.00 | 97 | 992.2 |
| 20260509171004 | 12 | 225 | 1.6 | 4.8 | 0.00 | 0.41 | 0.00 | 97 | 992.1 |
| 20260509170006 | 12 | 211 | 1.6 | 4.8 | 0.00 | 0.41 | 0.00 | 97 | 991.9 |
| 20260509165005 | 11 | 225 | 1.6 | 3.2 | 0.00 | 0.41 | 0.00 | 98 | 991.8 |
| 20260509164004 | 12 | 90 | 1.6 | 3.2 | 0.00 | 0.41 | 0.00 | 97 | 992.0 |
| 20260509163004 | 12 | 90 | 0.0 | 1.6 | 0.00 | 0.41 | 0.00 | 97 | 991.9 |
| 20260509162004 | 12 | 181 | 0.0 | 3.2 | 0.00 | 0.41 | 0.00 | 97 | 991.9 |
| 20260509161004 | 12 | 225 | 1.6 | 3.2 | 0.00 | 0.41 | 0.00 | 97 | 991.9 |
| 20260509160004 | 12 | 224 | 1.6 | 4.8 | 0.00 | 0.41 | 0.00 | 97 | 992.0 |
| 20260509155006 | 12 | 187 | 1.6 | 3.2 | 0.00 | 0.41 | 0.00 | 97 | 992.0 |
| 20260509154004 | 12 | 225 | 1.6 | 3.2 | 0.00 | 0.41 | 0.00 | 97 | 992.1 |
| 20260509153003 | 12 | 225 | 1.6 | 4.8 | 0.00 | 0.41 | 0.00 | 99 | 992.1 |
| 20260509152004 | 12 | 225 | 1.6 | 4.8 | 0.00 | 0.41 | 0.00 | 97 | 992.2 |
| 20260509151004 | 12 | 225 | 1.6 | 4.8 | 0.00 | 0.41 | 0.00 | 97 | 992.2 |
| 20260509150004 | 11 | 225 | 1.6 | 3.2 | 0.00 | 0.41 | 0.00 | 98 | 992.4 |
| 20260509145003 | 12 | 180 | 1.6 | 3.2 | 0.00 | 0.41 | 0.00 | 97 | 992.6 |
| 20260509144004 | 12 | 219 | 1.6 | 3.2 | 0.00 | 0.41 | 0.00 | 97 | 992.7 |
| 20260509143004 | 11 | 180 | 1.6 | 3.2 | 0.00 | 0.41 | 0.00 | 98 | 992.8 |
| 20260509142004 | 11 | 173 | 0.0 | 3.2 | 0.00 | 0.41 | 0.00 | 98 | 992.9 |
| 20260509141004 | 12 | 225 | 1.6 | 3.2 | 0.00 | 0.41 | 0.00 | 97 | 993.1 |
| 20260509140005 | 12 | 225 | 0.0 | 8.0 | 0.00 | 0.41 | 0.00 | 97 | 993.2 |
| 20260509135004 | 11 | 268 | 3.2 | 4.8 | 0.00 | 0.43 | 0.00 | 98 | 993.2 |
| 20260509134004 | 10 | 90 | 0.0 | 3.2 | 0.00 | 0.43 | 0.00 | 99 | 993.0 |
| 20260509133004 | 11 | 84 | 0.0 | 3.2 | 0.00 | 0.43 | 0.00 | 99 | 993.1 |
| 20260509132003 | 11 | 90 | 1.6 | 1.6 | 0.00 | 0.43 | 0.00 | 98 | 993.0 |
| 20260509131004 | 12 | 148 | 1.6 | 3.2 | 0.00 | 0.43 | 0.00 | 97 | 993.2 |
| 20260509130004 | 12 | 90 | 1.6 | 3.2 | 0.00 | 0.43 | 0.00 | 97 | 993.2 |
| 20260509125004 | 11 | 240 | 3.2 | 4.8 | 0.00 | 0.43 | 0.00 | 98 | 993.1 |
| 20260509124003 | 10 | 45 | 1.6 | 1.6 | 0.00 | 0.43 | 0.00 | 99 | 993.2 |
| 20260509123004 | 10 | 72 | 1.6 | 3.2 | 0.00 | 0.43 | 0.00 | 99 | 993.1 |
| 20260509122003 | 10 | 94 | 1.6 | 3.2 | 0.00 | 0.43 | 0.00 | 99 | 993.2 |
| 20260509121004 | 10 | 135 | 1.6 | 3.2 | 0.00 | 0.43 | 0.00 | 99 | 993.3 |
| 20260509120004 | 11 | 135 | 1.6 | 3.2 | 0.00 | 0.43 | 0.00 | 98 | 993.2 |
| 20260509115004 | 11 | 135 | 0.0 | 1.6 | 0.00 | 0.43 | 0.43 | 98 | 993.4 |
| 20260509114003 | 12 | 135 | 0.0 | 1.6 | 0.00 | 0.43 | 0.43 | 97 | 993.3 |
| 20260509113004 | 12 | 135 | 1.6 | 1.6 | 0.00 | 0.43 | 0.43 | 97 | 993.4 |
| 20260509112004 | 11 | 140 | 0.0 | 1.6 | 0.00 | 0.43 | 0.43 | 98 | 993.5 |
| 20260509111004 | 12 | 135 | 0.0 | 1.6 | 0.00 | 0.43 | 0.43 | 97 | 993.6 |
| 20260509110003 | 12 | 135 | 0.0 | 1.6 | 0.00 | 0.43 | 0.43 | 97 | 993.5 |
| 20260509105004 | 11 | 180 | 1.6 | 1.6 | 0.00 | 0.43 | 0.43 | 98 | 993.6 |
| 20260509104004 | 11 | 128 | 1.6 | 1.6 | 0.00 | 0.46 | 0.43 | 98 | 993.6 |
| 20260509103004 | 11 | 90 | 1.6 | 3.2 | 0.00 | 0.64 | 0.43 | 98 | 993.6 |
| 20260509102003 | 12 | 99 | 1.6 | 1.6 | 0.00 | 0.64 | 0.43 | 97 | 993.4 |
| 20260509101004 | 12 | 159 | 1.6 | 3.2 | 0.00 | 0.71 | 0.43 | 97 | 993.5 |
| 20260509100005 | 12 | 143 | 1.6 | 1.6 | 0.00 | 0.74 | 0.43 | 97 | 993.3 |
| 20260509095003 | 11 | 34 | 1.6 | 4.8 | 0.00 | 0.76 | 0.43 | 98 | 993.5 |
| 20260509094004 | 11 | 346 | 1.6 | 3.2 | 0.00 | 0.86 | 0.43 | 98 | 993.4 |
| 20260509093006 | 12 | 74 | 1.6 | 3.2 | 0.00 | 0.97 | 0.43 | 97 | 993.3 |
| 20260509092006 | 12 | 125 | 1.6 | 3.2 | 0.00 | 1.04 | 0.43 | 97 | 993.3 |
| 20260509091005 | 12 | 197 | 0.0 | 0.0 | 0.00 | 1.04 | 0.43 | 97 | 993.2 |
| 20260509090004 | 12 | 135 | 0.0 | 3.2 | 0.00 | 1.09 | 0.43 | 97 | 993.3 |
| 20260509085004 | 12 | 150 | 0.0 | 1.6 | 0.00 | 1.09 | 0.43 | 97 | 993.5 |
| 20260509084004 | 12 | 135 | 1.6 | 3.2 | 0.00 | 1.14 | 0.43 | 97 | 993.5 |
| 20260509083004 | 13 | 135 | 1.6 | 1.6 | 0.00 | 1.27 | 0.43 | 99 | 993.4 |
| 20260509082003 | 13 | 135 | 0.0 | 1.6 | 0.00 | 1.32 | 0.43 | 99 | 993.5 |
| 20260509081004 | 13 | 167 | 0.0 | 1.6 | 0.00 | 1.50 | 0.43 | 99 | 993.4 |
| 20260509080004 | 13 | 90 | 1.6 | 1.6 | 0.00 | 1.63 | 0.43 | 99 | 993.3 |
| 20260509075003 | 13 | 135 | 0.0 | 0.0 | 0.00 | 1.70 | 0.43 | 99 | 993.3 |
| 20260509074003 | 13 | 180 | 0.0 | 0.0 | 0.00 | 1.80 | 0.43 | 99 | 993.3 |
| 20260509073004 | 13 | 90 | 0.0 | 1.6 | 0.03 | 1.93 | 0.43 | 99 | 993.2 |
| 20260509072004 | 13 | 90 | 1.6 | 1.6 | 0.08 | 2.11 | 0.43 | 99 | 993.1 |
| 20260509071004 | 13 | 156 | 0.0 | 1.6 | 0.10 | 2.13 | 0.43 | 99 | 993.2 |
| 20260509070004 | 14 | 220 | 1.6 | 3.2 | 0.10 | 2.13 | 0.43 | 99 | 993.0 |
| 20260509065004 | 13 | 225 | 1.6 | 3.2 | 0.10 | 2.13 | 0.43 | 99 | 993.0 |
| 20260509064004 | 14 | 225 | 0.0 | 3.2 | 0.10 | 2.13 | 0.43 | 97 | 993.0 |
| 20260509063004 | 14 | 221 | 1.6 | 9.7 | 0.08 | 2.11 | 0.41 | 96 | 992.8 |
| 20260509062004 | 15 | 287 | 4.8 | 9.7 | 0.03 | 2.06 | 0.36 | 95 | 992.8 |
| 20260509061004 | 15 | 225 | 1.6 | 3.2 | 0.00 | 2.03 | 0.33 | 94 | 992.5 |
| 20260509060004 | 15 | 180 | 0.0 | 0.0 | 0.00 | 2.03 | 0.33 | 94 | 992.6 |
| 20260509055004 | 15 | 225 | 0.0 | 1.6 | 0.00 | 2.03 | 0.33 | 94 | 992.5 |
| 20260509054004 | 15 | 225 | 1.6 | 4.8 | 0.00 | 2.03 | 0.33 | 94 | 992.6 |
| 20260509053003 | 16 | 225 | 1.6 | 4.8 | 0.00 | 2.03 | 0.33 | 94 | 992.5 |
| 20260509052004 | 16 | 228 | 1.6 | 8.0 | 0.00 | 2.03 | 0.33 | 94 | 992.8 |
| 20260509051004 | 16 | 241 | 1.6 | 4.8 | 0.00 | 2.03 | 0.33 | 95 | 992.5 |
| 20260509050007 | 16 | 298 | 1.6 | 3.2 | 0.00 | 2.06 | 0.33 | 94 | 992.6 |
| 20260509045006 | 16 | 287 | 0.0 | 1.6 | 0.00 | 2.13 | 0.33 | 94 | 992.9 |
| 20260509044006 | 16 | 228 | 1.6 | 4.8 | 0.00 | 2.16 | 0.33 | 94 | 993.0 |
| 20260509043004 | 16 | 210 | 0.0 | 8.0 | 0.00 | 2.26 | 0.33 | 94 | 992.9 |
| 20260509042004 | 16 | 255 | 1.6 | 3.2 | 0.00 | 2.46 | 0.33 | 94 | 992.9 |
| 20260509041004 | 16 | 225 | 1.6 | 1.6 | 0.00 | 2.46 | 0.33 | 94 | 992.9 |
| 20260509040004 | 16 | 247 | 1.6 | 4.8 | 0.00 | 2.46 | 0.33 | 93 | 993.0 |
| 20260509035004 | 16 | 232 | 1.6 | 3.2 | 0.00 | 2.49 | 0.33 | 92 | 993.1 |
| 20260509034004 | 17 | 225 | 3.2 | 9.7 | 0.00 | 2.49 | 0.33 | 89 | 993.0 |
| 20260509033004 | 17 | 270 | 6.4 | 11.3 | 0.00 | 2.49 | 0.33 | 91 | 992.8 |
| 20260509032004 | 17 | 252 | 1.6 | 4.8 | 0.00 | 2.49 | 0.33 | 91 | 992.6 |
| 20260509031004 | 17 | 270 | 3.2 | 12.9 | 0.00 | 2.49 | 0.33 | 91 | 992.9 |
| 20260509030004 | 17 | 342 | 4.8 | 12.9 | 0.00 | 2.49 | 0.33 | 90 | 993.0 |
| 20260509025003 | 17 | 250 | 1.6 | 4.8 | 0.00 | 2.49 | 0.33 | 89 | 993.0 |
| 20260509024004 | 17 | 260 | 3.2 | 8.0 | 0.00 | 2.49 | 0.33 | 89 | 993.3 |
| 20260509023004 | 17 | 225 | 3.2 | 9.7 | 0.00 | 2.49 | 0.33 | 88 | 993.4 |
| 20260509022004 | 17 | 260 | 3.2 | 4.8 | 0.00 | 2.49 | 0.33 | 89 | 993.3 |
| 20260509021004 | 17 | 253 | 3.2 | 4.8 | 0.00 | 2.49 | 0.33 | 89 | 993.3 |
| 20260509020004 | 17 | 270 | 3.2 | 8.0 | 0.00 | 2.49 | 0.33 | 88 | 993.3 |
| 20260509015004 | 17 | 225 | 4.8 | 19.3 | 0.03 | 2.49 | 0.33 | 86 | 993.2 |
| 20260509014004 | 18 | 270 | 8.0 | 16.1 | 0.03 | 2.49 | 0.33 | 87 | 992.9 |
| 20260509013007 | 20 | 270 | 4.8 | 11.3 | 0.03 | 2.49 | 0.33 | 90 | 992.8 |
| 20260509012005 | 18 | 288 | 4.8 | 16.1 | 0.03 | 2.49 | 0.33 | 93 | 993.0 |
| 20260509011004 | 17 | 300 | 8.0 | 25.7 | 0.10 | 2.49 | 0.33 | 92 | 993.4 |
| 20260509010003 | 17 | 228 | 9.7 | 19.3 | 0.10 | 2.49 | 0.33 | 95 | 993.5 |
| 20260509005003 | 17 | 344 | 6.4 | 11.3 | 0.08 | 2.46 | 0.30 | 96 | 993.4 |
| 20260509004003 | 16 | 279 | 3.2 | 11.3 | 0.08 | 2.46 | 0.30 | 97 | 993.6 |
| 20260509003003 | 16 | 225 | 1.6 | 4.8 | 0.08 | 2.46 | 0.30 | 95 | 993.6 |
| 20260509002004 | 16 | 225 | 3.2 | 9.7 | 0.08 | 2.46 | 0.30 | 92 | 993.9 |
| 20260509001004 | 17 | 246 | 8.0 | 20.9 | 0.03 | 2.39 | 0.23 | 88 | 994.1 |
| 20260509000004 | 18 | 315 | 9.7 | 20.9 | 0.03 | 2.39 | 0.23 | 88 | 994.1 |
| 20260508235004 | 18 | 236 | 9.7 | 22.5 | 0.03 | 2.39 | 0.23 | 84 | 994.1 |